Regional Weather Roundup
Issued by NWS State College, PA

Home | Current Version | Previous Version | Graphics & Text | Print | Product List | Glossary On
Versions: 1 2 3 4 5 6 7 8 9 10 11 12 13 14 15 16 17 18 19 20 21 22 23 24 25 26 27 28 29 30 31 32 33 34 35 36 37 38 39 40 41 42 43 44 45 46 47 48 49 50
019
ASUS41 KCTP 181903
RWRCTP

REGIONAL WEATHER ROUNDUP
NATIONAL WEATHER SERVICE STATE COLLEGE PA
200 PM EST SUN FEB 18 2018

Note: "fair" indicates few or no clouds below 12,000 feet with no
significant weather and/or obstructions to visibility.

* = STATION THAT DOES NOT REPORT PRECIPITATION /E.G. RAIN...SNOW...ETC/
    THUNDER OR FOG.

PAZ002>004-007>009-013>016-020>023-029>032-182000-
WESTERN PENNSYLVANIA

CITY           SKY/WX    TMP DP  RH WIND       PRES   REMARKS
ERIE           CLOUDY    36  24  62 W8        30.33S
MEADVILLE      FAIR      35  25  66 S7        30.30S
FRANKLIN*      FAIR      37  23  56 S6        30.30F
NEW CASTLE     FAIR      40  28  62 VRB5      30.33F
BEAVER COUNTY  PTSUNNY   39  28  65 S9        30.33F
BUTLER*        PTSUNNY   37  26  64 SE7       30.34F
PITTSBURGH INT CLOUDY    37  27  67 S8        30.34S
PITTSBURGH     CLOUDY    36  27  69 S9        30.35R
INDIANA*       CLOUDY    36  25  64 CALM      30.39R
LATROBE        PTSUNNY   36  27  69 SW6       30.38S
WASHINGTON CO* CLOUDY    38  27  64 S10       30.38F
$$

PAZ004>006-010>012-017>019-024>028-033>037-041-042-045-046-049>053-182000-
CENTRAL PENNSYLVANIA

CITY           SKY/WX    TMP DP  RH WIND       PRES   REMARKS
BRADFORD       FAIR      34  22  61 CALM      30.27F
DUBOIS         FAIR      33  21  61 SW7       30.30S
CLEARFIELD     FAIR      35  23  61 S10       30.33S
JOHNSTOWN      PTSUNNY   33  25  72 W5        30.30S
ALTOONA        FAIR      35  24  64 CALM      30.35S
STATE COLLEGE  MOSUNNY   36  25  64 SW5       30.34F
WILLIAMSPORT   FAIR      43  25  49 W6        30.34S
SELINSGROVE    FAIR      41  23  48 S5        30.37F
FT INDIANTOWN  FAIR      42  25  50 W7        30.36F
CAPITAL CITY   FAIR      44  26  49 VRB7      30.38F
HARRISBURG     PTSUNNY   42  25  50 W6        30.37F
YORK           FAIR      43  28  55 W5        30.37F
$$

PAZ038>040-043-044-047-048-054-055-060>062-067>071-182000-
EASTERN PENNSYLVANIA

CITY           SKY/WX    TMP DP  RH WIND       PRES   REMARKS
SCRANTON       FAIR      38  23  55 NE7       30.33S
MOUNT POCONO   NOT AVBL
ALLENTOWN      FAIR      41  23  48 W8        30.36S
QUAKERTOWN*    PTCLDY    41  23  48 VRB6      30.36F
READING        FAIR      42  26  53 W7        30.37S
LANCASTER      FAIR      41  27  57 W7        30.38F
COATESVILLE    FAIR      41 N/A N/A W10       30.38F
POTTSTOWN      FAIR      40  24  53 NW8       30.38F
BLUE BELL      FAIR      41  28  60 NW7       30.38F
DOYLESTOWN     FAIR      42  24  49 W8        30.36S
WILLOW GROVE   NOT AVBL
NORTH PHILA    FAIR      46  28  49 NW15G22   30.38F
PHILADELPHIA   FAIR      44  24  45 NW9       30.39S
$$




USA.gov is the U.S. government's official web portal to all federal, state and local government web resources and services.